Terminal Aerodrome Forecast
Issued by NWS Cleveland, OH

Home | Current Version | Previous Version | Graphics & Text | Print | Product List | Glossary On
Versions: 1 2 3 4 5 6 7 8 9 10 11 12 13 14 15 16 17 18
000
FTUS41 KCLE 251935 AAB
TAFYNG
TAF AMD
KYNG 251935Z 2520/2618 23010G15KT P6SM VCSH BKN070
     FM260200 17004KT P6SM OVC100
     FM260800 19006KT P6SM OVC035
     FM261300 21007KT 4SM -TSRA BR OVC025CB
     FM261400 21008KT P6SM OVC035
     FM261700 22008KT P6SM OVC250=

USA.gov is the U.S. government's official web portal to all federal, state and local government web resources and services.